User: anonymous
Location: Caltech
(34.1382°N, 118.1253°W)
Time: 02:36:00
(UTC-07:00)
Language:

SEDSat Delta rocket - Orbit

View from above orbital plane
View from above orbital plane
View from above satellite
View from above satellite

Ground track
Ground track

The orbit data is extracted from the following two-line orbital elements,

1 25510U 98061C   14106.87516867  .00000725  00000-0  11687-3 0  8435
2 25510 031.4363 292.1608 0334010 266.9209 246.2711 14.35606731810769
Epoch (UTC): 16 April 2014 21:00:14
Eccentricity: 0.0334010
inclination: 31.4363°
perigee height: 534 km
apogee height: 1012 km
right ascension of ascending node: 292.1608°
argument of perigee: 266.9209°
revolutions per day: 14.35606731
mean anomaly at epoch: 246.2711°
orbit number at epoch: 81076

The dashed part of the orbit path shows where the satellite is in the earth's shadow,  

DLR